Location: 22
(39.7117°N, 89.5929°W)
Time: 04:51:52
(UTC-05:00)

Vanguard 1 Rocket - Pass Details

Date: 15 February 2023
Orbit: 652 x 4223 km, 34.3° (Epoch: 26 March)

Event Time Altitude Azimuth Distance (km) Brightness Sun altitude
Rises 16:32:38 0° 274° (W) 5,693 12.6 10.3°
Reaches altitude 10° 16:36:57 10° 261° (W) 5,197 13.2 9.5°
Maximum altitude 16:48:41 24° 215° (SW) 5,225 12.3 7.5°
Drops below altitude 10° 17:05:04 10° 172° (S) 7,271 12.2 4.6°
Sets 17:13:12 0° 160° (SSE) 8,453 12.3 3.1°
